Theta_e
315 314 315 315 316 316 316 316 316 316 316 315 315 315 314 313 313 313 313 313 313 310 310 312 310 309 307 304 301 299 297 296 296 295 294 293 293 293 292 291 291 291 290 289
315 316 315 315 314 315 315 314 315 315 315 314 314 315 314 313 314 314 313 313 313 310 310 306 307 308 306 303 300 299 297 296 296 295 293 293 292 292 292 291 290 289 289 289
314 315 315 315 315 315 315 314 314 314 314 313 313 314 313 313 313 313 312 312 310 309 309 305 304 305 304 301 299 298 297 296 295 294 293 293 293 292 291 291 290 289 289 288
314 314 315 314 314 313 314 314 315 315 315 316 314 317 313 313 312 311 311 311 309 307 309 305 303 303 301 300 299 297 297 296 295 294 293 293 292 290 291 291 290 289 289 288
313 313 313 314 314 313 314 312 314 315 316 315 315 314 313 312 312 311 310 311 310 309 307 304 303 303 301 300 298 297 297 296 295 294 293 292 291 291 291 290 290 289 288 287
311 309 311 313 310 311 310 312 312 312 312 314 312 313 312 312 312 312 310 309 308 308 305 304 303 303 301 300 298 297 296 295 294 293 292 292 291 291 291 290 289 288 287 287
312 310 310 310 312 309 310 314 315 316 316 316 312 312 314 314 310 310 309 308 307 307 304 302 300 299 299 298 297 297 296 295 294 293 292 291 291 291 291 290 289 287 287 286
313 313 311 308 311 314 310 313 317 316 314 313 311 313 313 312 311 310 309 308 308 306 305 303 301 299 299 298 297 296 295 294 294 292 292 291 290 290 290 290 289 288 287 286
312 312 307 308 310 311 312 312 313 314 307 313 313 312 312 312 311 309 308 308 307 306 305 304 302 300 299 298 296 295 295 294 293 292 291 290 290 290 290 289 288 287 286 285
312 312 310 305 305 307 309 308 313 314 311 311 311 311 313 313 313 310 310 308 307 305 305 303 302 300 299 298 297 295 295 294 293 292 290 290 289 289 289 288 287 286 285 284
311 312 310 305 306 309 306 308 309 310 315 312 312 313 311 310 311 310 309 310 309 307 304 302 301 302 300 299 297 295 295 294 293 292 290 289 289 288 287 287 286 285 285 284
311 314 314 311 309 307 308 309 310 311 311 309 312 313 310 311 308 307 308 309 308 307 306 304 302 300 299 298 296 295 294 293 293 291 290 289 288 287 286 285 284 283 283 282
311 312 316 313 312 306 306 308 309 310 310 312 313 312 310 311 309 308 308 308 307 306 306 305 302 299 298 297 296 294 293 293 292 291 289 287 286 285 284 283 282 281 281 281
312 313 315 316 314 312 311 308 307 309 311 311 311 310 310 310 310 310 310 309 306 305 306 304 303 300 298 297 296 294 293 293 292 290 287 285 283 282 282 281 281 280 280 279
314 313 312 313 313 312 312 311 310 310 310 310 310 310 310 310 309 310 310 308 307 306 306 303 302 301 299 296 296 295 293 292 291 288 286 283 281 281 281 280 279 279 278 278
313 315 312 313 311 311 311 310 310 311 311 311 311 311 310 309 309 309 309 309 308 308 308 306 301 298 297 295 296 294 293 291 290 286 283 282 280 280 279 279 278 277 277 277
310 312 313 316 313 312 314 313 313 313 312 312 312 312 311 310 310 310 310 310 310 309 308 304 301 299 296 296 295 292 292 290 287 284 282 280 279 279 278 277 276 276 276 275
316 314 314 317 315 317 313 312 312 313 313 312 312 312 312 312 311 311 310 309 309 309 308 305 299 298 299 300 295 293 290 287 284 282 280 278 278 277 276 275 275 274 274 274
314 316 317 317 318 315 314 313 312 313 313 312 312 312 312 311 310 311 311 310 309 308 307 306 300 300 301 297 293 290 286 284 282 280 279 277 277 276 275 274 274 274 274 273
313 314 317 318 319 320 315 312 310 311 314 311 311 312 311 311 312 312 310 308 303 302 301 300 299 299 296 292 290 286 283 281 281 280 278 277 276 275 274 274 273 274 273 273
313 314 316 317 318 317 314 311 309 313 314 311 311 310 310 309 309 308 304 302 301 300 300 297 295 293 291 289 287 284 281 281 281 279 277 275 275 274 274 273 273 272 272 272
313 313 314 314 314 315 307 308 312 310 305 304 304 305 305 307 307 306 304 301 298 298 295 293 288 287 288 287 284 282 281 280 279 277 275 274 273 273 272 272 271 271 271 270
303 300 299 301 305 305 301 298 297 302 300 300 301 300 301 302 303 303 302 302 300 297 291 288 286 284 285 285 283 281 280 279 277 274 273 271 271 271 271 270 270 269 269 270
293 295 297 296 302 295 292 295 298 296 295 294 295 295 298 299 300 299 299 300 299 292 292 286 283 282 281 282 282 282 279 277 274 272 270 269 269 268 268 269 269 269 269 270
290 289 290 290 290 292 293 294 293 293 292 292 293 294 295 296 297 298 300 300 299 295 288 286 285 286 285 281 281 281 278 275 272 271 269 269 268 267 267 268 269 270 270 271
289 290 290 290 291 290 291 290 291 288 287 287 290 291 290 292 293 294 295 294 294 294 293 285 285 286 284 281 280 278 276 274 272 271 269 268 268 268 268 269 269 270 270 271
Wind_Speed
7 5 11 15 17 16 15 16 17 23 11 10 15 19 16 11 14 14 17 19 16 13 9 26 34 33 33 34 35 35 34 32 32 31 29 26 27 25 22 19 18 16 12 8
4 13 20 9 12 7 10 14 21 20 12 8 10 13 12 10 16 21 18 20 20 7 8 10 26 31 34 37 37 37 37 36 36 36 33 24 27 24 21 19 18 16 14 12
19 10 13 7 8 10 13 11 16 17 9 6 5 8 12 9 17 16 17 21 12 10 10 9 11 25 32 36 41 41 39 39 38 35 31 20 26 18 21 21 21 19 16 13
16 18 20 15 18 11 22 9 10 12 7 6 4 14 8 6 12 11 14 18 11 11 8 10 11 18 29 31 36 37 39 39 39 35 36 37 35 24 27 31 24 20 18 14
7 4 6 9 11 9 6 2 2 4 5 6 5 9 6 9 9 11 12 15 12 9 12 11 13 24 28 32 37 38 38 39 38 41 42 40 34 28 22 23 25 23 18 15
15 4 3 4 3 2 3 2 3 3 2 10 11 12 3 6 8 6 9 14 12 8 9 9 15 24 26 33 35 36 38 38 39 42 41 41 38 30 30 31 28 24 19 15
6 17 2 3 4 2 3 3 4 4 1 16 10 10 17 5 8 11 12 13 10 10 10 10 12 13 23 30 34 36 36 35 39 41 42 42 39 37 37 35 31 26 23 20
3 10 14 8 12 7 9 8 6 7 12 21 5 9 9 10 11 10 14 12 9 9 9 10 11 12 21 27 33 34 37 34 39 43 43 42 40 39 38 37 33 29 25 21
8 11 4 6 2 8 6 6 3 2 3 4 12 14 10 9 10 10 10 8 8 8 9 10 9 15 22 27 34 38 37 37 39 42 39 40 40 39 39 35 32 29 25 22
5 10 7 4 3 3 3 1 2 2 2 8 19 15 16 14 19 7 5 7 7 9 9 9 9 12 22 27 31 34 34 36 36 38 39 38 40 40 38 35 34 30 26 22
3 5 7 7 8 10 2 4 5 1 5 5 11 14 4 9 6 9 8 5 7 9 10 10 10 17 25 28 31 32 36 36 39 40 39 36 38 40 38 37 35 32 27 24
9 3 6 16 8 2 5 11 12 10 15 5 11 24 8 6 8 9 7 7 8 9 10 10 12 12 20 24 27 33 32 35 40 41 40 40 38 40 39 37 34 30 26 23
9 3 2 8 14 1 5 5 12 11 11 19 18 22 13 23 17 9 9 9 8 10 9 10 8 11 13 21 25 29 32 36 36 39 40 39 40 41 40 38 34 30 27 24
8 5 8 14 17 15 11 12 12 14 11 20 21 25 32 29 26 26 21 17 10 10 12 12 9 11 14 23 27 29 31 37 39 40 37 36 37 37 37 35 32 30 27 24
5 11 18 24 24 25 22 23 23 23 18 20 25 28 27 31 24 26 24 18 14 11 12 11 11 11 13 14 23 28 31 36 38 35 34 33 33 36 35 34 33 30 26 23
10 9 13 23 30 31 29 28 26 31 30 32 36 32 36 30 28 33 29 28 19 17 19 17 11 11 11 13 24 28 28 33 39 35 32 32 35 36 37 37 36 32 27 23
8 8 9 22 23 27 24 32 37 34 32 30 29 38 38 34 32 34 33 24 24 17 15 9 11 11 10 17 27 26 30 32 35 34 33 35 38 40 40 39 36 32 27 23
19 21 15 19 17 24 18 23 33 37 35 34 34 37 36 32 36 27 11 13 20 19 21 16 8 9 15 24 26 25 30 33 32 31 33 36 38 37 37 37 35 31 25 22
24 23 16 15 19 24 3 23 26 21 33 33 29 31 34 29 25 25 26 22 21 18 21 16 9 14 18 22 28 32 29 30 30 30 34 37 39 36 34 31 32 31 26 21
27 27 21 19 23 26 17 21 25 29 23 13 23 28 26 23 14 18 23 19 11 12 11 10 8 9 15 22 31 28 26 29 31 35 37 37 39 39 38 39 35 30 26 21
7 15 24 24 21 13 5 16 11 15 21 18 20 22 21 15 11 15 10 10 6 8 9 3 7 8 17 26 30 21 25 29 31 30 32 36 39 40 39 36 33 30 25 18
9 6 7 11 19 27 16 6 12 13 19 21 19 18 19 18 16 13 18 16 11 9 4 3 4 3 13 22 22 17 20 24 30 33 32 32 35 34 37 36 31 27 23 19
6 1 4 5 5 11 10 12 16 9 15 13 13 15 15 17 19 18 16 14 10 10 7 5 3 4 14 22 23 15 19 29 33 31 30 33 35 37 39 36 32 25 22 17
10 14 7 14 4 25 33 25 13 14 13 13 9 12 16 16 18 16 16 16 10 5 7 7 6 7 8 21 23 20 23 29 29 27 27 29 30 31 33 30 29 24 23 17
11 18 13 22 21 22 15 16 20 23 19 15 17 15 13 13 15 14 15 12 9 6 5 10 10 11 13 21 25 24 31 35 29 26 28 29 25 27 26 24 27 23 21 21
11 15 14 17 21 21 24 22 21 16 17 17 15 18 17 16 19 20 17 14 13 15 9 7 11 13 18 24 28 35 39 39 33 29 28 29 27 27 28 27 21 15 18 16
Wind_Direction
192 182 218 216 216 234 255 264 262 271 264 188 230 246 251 247 272 262 263 267 261 255 249 205 190 192 189 187 182 183 184 186 186 185 181 186 192 192 200 198 202 204 203 206
204 219 235 255 259 258 272 275 271 276 291 183 256 259 262 251 257 259 264 267 270 240 244 155 169 184 184 179 182 184 189 191 190 193 193 191 198 203 204 201 207 206 207 213
227 207 216 228 241 261 240 245 262 266 280 217 272 260 249 241 250 262 262 258 254 223 221 170 162 175 175 175 181 185 189 193 192 196 193 185 183 179 184 197 206 204 211 217
253 239 245 249 256 230 268 240 261 270 268 242 91 289 222 237 266 239 251 265 249 223 189 166 165 169 175 182 184 188 192 193 196 193 192 190 182 175 201 204 202 204 209 212
219 175 198 234 236 187 263 65 303 290 270 315 218 275 232 190 243 236 242 254 266 239 178 166 174 175 181 184 188 191 194 196 195 196 200 200 202 206 208 198 191 199 206 213
257 123 222 219 78 105 121 316 246 249 229 256 203 219 195 187 212 215 227 248 244 172 162 171 170 171 181 189 191 193 196 198 199 202 204 207 205 194 183 183 194 200 204 209
229 235 145 144 152 174 171 149 294 300 247 264 181 240 252 217 182 197 217 236 221 162 166 170 166 170 178 186 190 193 195 199 201 203 208 212 209 200 193 196 200 196 196 202
256 273 176 180 213 176 179 177 174 228 260 279 155 253 255 221 228 218 212 232 154 163 163 181 179 183 189 186 189 192 198 200 201 204 208 213 213 205 208 210 207 206 205 204
196 249 39 153 192 161 180 196 211 269 67 316 266 276 281 233 247 241 217 157 168 174 183 183 181 184 187 190 193 196 198 201 202 205 205 208 211 207 205 205 208 207 206 204
248 260 175 146 58 270 189 308 115 233 237 243 278 288 273 272 263 231 154 218 219 201 187 195 192 187 197 200 199 200 202 203 202 204 204 204 206 208 208 205 205 205 206 208
235 226 248 127 201 180 164 237 228 270 189 210 266 274 258 145 153 165 207 208 218 199 206 204 197 199 195 198 197 200 202 202 203 205 202 201 204 205 205 207 207 205 204 206
203 168 250 245 232 230 237 215 205 222 240 235 236 261 182 261 133 139 162 193 221 210 201 200 203 191 192 196 194 198 201 202 204 203 201 202 201 200 201 204 204 202 201 206
352 280 267 277 294 266 224 230 246 254 254 249 245 253 246 270 269 257 265 284 222 226 212 217 194 190 197 199 198 198 199 204 200 200 197 196 196 197 200 202 200 198 200 206
93 269 267 250 253 289 283 253 241 239 254 259 257 271 279 273 275 283 279 277 242 225 220 227 216 198 197 199 197 199 201 201 197 195 190 188 189 191 196 200 198 198 201 204
173 216 221 236 245 262 263 261 274 275 261 253 270 269 267 271 277 269 272 277 274 278 258 234 228 215 205 198 197 198 199 193 191 185 185 185 184 191 195 196 196 198 201 204
186 227 215 233 239 250 260 265 259 251 254 254 255 260 263 259 267 270 274 271 283 267 264 258 234 222 208 199 199 197 192 186 183 180 179 177 180 186 191 193 194 196 197 200
191 201 207 248 234 240 248 243 250 256 250 244 251 250 256 264 257 259 266 286 278 271 263 244 232 225 212 208 200 190 187 176 175 175 173 174 176 183 188 191 193 196 196 197
231 236 239 253 250 231 227 227 233 243 248 249 248 251 257 258 258 265 271 262 273 282 287 273 230 229 225 222 202 184 175 171 172 172 171 173 177 180 182 185 187 191 190 193
231 236 248 245 241 257 229 218 224 230 241 244 257 257 253 262 262 270 265 259 268 269 272 270 227 226 222 194 184 168 163 166 169 175 176 177 178 175 177 179 184 187 185 188
235 234 235 242 249 252 240 237 245 258 261 248 243 249 253 254 252 254 260 263 242 233 245 252 209 198 185 180 172 160 165 170 182 184 180 178 178 176 177 182 185 185 185 184
232 231 242 240 245 251 244 272 291 247 264 271 267 270 273 262 250 267 274 271 249 238 252 192 179 191 189 176 168 170 172 190 186 178 176 175 179 178 179 180 179 181 178 175
264 264 245 251 267 267 7 313 265 335 8 359 356 350 345 342 344 3 352 343 332 301 307 210 179 174 184 182 175 181 192 182 173 172 170 173 174 172 173 174 173 176 172 177
274 20 301 304 332 320 340 323 310 310 347 334 325 315 313 315 319 323 321 318 315 322 295 273 208 174 190 195 192 189 190 174 168 167 166 167 170 171 172 168 165 163 173 170
303 299 314 322 346 315 316 319 1 355 338 320 316 303 296 302 301 290 297 291 279 239 248 212 178 197 210 208 209 210 177 172 164 164 162 164 164 163 165 163 166 161 162 166
288 309 296 285 288 304 303 324 322 324 322 348 338 312 322 328 310 298 299 294 290 268 233 198 209 219 227 198 199 199 182 173 169 169 164 164 164 162 159 160 166 162 173 177
264 269 283 287 302 303 309 322 324 344 337 327 320 326 318 318 304 297 286 291 293 293 284 223 222 222 217 199 193 190 186 178 172 169 172 169 167 167 160 150 142 157 161 162